STARLINK-37187, 68399

Orbit data source: Space-Track

STARLINK-37187, 68399 is a payload satellite owned by SpaceX/Seattle (US) in SSO that was launched on Thu, 26 Mar 2026 UTC via an FALCON 9 launch vehicle from the Air Force Western Test Range (AFWTR). Payload-class satellites include a variety of spacecraft equipped with specific instruments for various scientific and technological missions. These include communications satellites like Starlink; space stations such as the ISS; scientific satellites like the Hubble; Earth observation satellites from companies like Planet Labs, Umbra, and HawkEye 360; GPS; miniature CubeSats for education and research; and military/defense satellites.

Loading next visibility...
Identifier
68399, 2026-063V
Orbit
SSO
Country
Flag of USUS
Related business
Manufacturer
SpaceX/Seattle
Mission
Operational spacecraft
Bus & Motor
STARLINK V2MO, Unknown motor
Mass
575 kg wet, ~530 kg dry
Launch date (UTC)
2026-03-26 (3 months ago)
Launch vehicle
FALCON 9
Launch site
Air Force Western Test Range (AFWTR)
Object type
Payload
Rocket body
Debris
Shape & HBR
Unknown shape, 17.7 m
Radar Cross Section
Large (>1 m²)

Expand to show TLE details & history
Last TLE update: 7 hours ago

TLE from 7 hours ago
0 STARLINK-37187
1 68399U 26063V   26165.93740134  .00008838  00000-0  27581-3 0  9996
2 68399  97.2856 308.2798 0001295  92.8576 267.2815 15.33438280 12804
Epoch: 2026-06-14T22:29Z
TLE epoch observation values (Epoch: 2026-06-14T22:29:51.475Z)
Latitude
-0.00004°
Longitude
67.58435°
Altitude
468.717 km
Speed
7.632 km/s
True Right ascension
20h 33m 07s
True Declination
0° 00' 00"
Sunlit
Object was in full shadow at epoch
Visualization orbit readout
Latitude
Unknown
Longitude
Unknown
Altitude
Unknown
Speed
Unknown
Apparent Right ascension
Unknown
Apparent Declination
Unknown
Sunlit
N/A
Visualization observer readout
Local Sidereal Time
15:44:37
Azimuth
Unknown
Elevation
Unknown
Doppler factor
Unknown
Orbital elements
Apogee altitude
463.392 km
Perigee altitude
461.62 km
Semi-major axis
6,840.643 km
Eccentricity
0.00013
Inclination
97.2856°
RAAN
308.2798°
Arg. of periapsis
92.8576°
True anomaly
267.26668°
Mean anomaly
267.2815°
Eccentric anomaly
267.27409°
Mean motion
3.83617 °/min
Orbital period
93.84 mins
BSTAR
0.00027581
Loading maneuver chart data...
Computing Atmospheric mass density...
Loading historical data...
Loading historical data...
Loading historical data...
Loading historical data...
Loading historical data...
Loading historical data...
Loading historical data...

Documentation

Showing up to 5 results
|